Pagina principale
METAR-TAF:

METAR-TAF

Aeroporti :

Sun City, Sudafrica

latitudine: 25-20-01S, longitudine: 027-10-24E, altezza: 1040 m

Osservazione

Il bollettino è stato emesso 42 minuti fa, alle 05:00 UTC
Vento 1 kt da nord
Temperature 23°C
Umidità 53%
Pressione 1012 hPa

METAR: FAPN 180500Z AUTO 36001KT //// // ////// 23/13 Q1012

Ora: 07:42 (05:42 UTC)


TAF: mancante

Osservazioni e previsioni meteorologiche di più di 4000 aeroporti (messaggi METAR e TAF).

Le stazioni disponibili sono rappresentate dai dischi gialli e rossi sulla carta.

Puntare il mouse per vedere il nome della stazione.

Clicca sopra per visualizzare le osservazioni e previsioni meteorologiche.

Per cambiare la mappa : fare clic sui pulsanti verdi con una croce nera per ingrandire, il pulsante verde con un trattino per diminuire, o sulla freccia verde per le mappe adiacenti.


METAR-TAF: